COSMOS 2251 DEB, 33922

Orbit data source: Space-Track

COSMOS 2251 DEB, 33922 is space debris in LEO originally from a launch on Wed, 16 Jun 1993 UTC launched from the Plesetsk Missile And Space Complex (PKMTR). The debris from Iridium 33, an American commercial communications satellite, has been tracked extensively since its accidental collision with the defunct Russian satellite Cosmos 2251 in 2009. This event, occurring at high speed in low Earth orbit (LEO), generated thousands of pieces of space debris, significantly increasing the risk of further collisions. The Iridium 33 debris cloud has impacted space traffic management and orbital debris mitigation strategies, making it a subject of ongoing study in space situational awareness.

Loading next visibility...
Identifier
33922, 1993-036EB
Orbit
LEO
Country
Flag of CISCIS
Related business
Manufacturer
Unknown
Mission
Spacecraft
Bus & Motor
Unknown
Mass
Unknown
Launch date (UTC)
1993-06-16 (32 years ago)
Launch vehicle
Unknown
Launch site
Plesetsk Missile And Space Complex (PKMTR)
Object type
Payload
Rocket body
Debris
Shape & HBR
Unknown shape, 0.1 m
Radar Cross Section
Small (<0.1 m²)

Expand to show TLE details & history
Last TLE update: 5 hours ago

TLE from 5 hours ago
0 COSMOS 2251 DEB
1 33922U 93036EB  25296.59956206  .00002790  00000-0  73627-3 0  9992
2 33922  74.0482 241.7522 0022510 359.5012 177.5456 14.49266508878513
Epoch: 2025-10-23T14:23Z
TLE epoch observation values (Epoch: 2025-10-23T14:23:22.161Z)
Latitude
2.73435°
Longitude
172.87535°
Altitude
746.344 km
Speed
7.473 km/s
True Right ascension
04h 03m 53s
True Declination
2° 43' 05"
Sunlit
Object was in full shadow at epoch
Visualization orbit readout
Latitude
Unknown
Longitude
Unknown
Altitude
Unknown
Speed
Unknown
Apparent Right ascension
Unknown
Apparent Declination
Unknown
Sunlit
N/A
Visualization observer readout
Local Sidereal Time
14:47:23
Azimuth
Unknown
Elevation
Unknown
Doppler factor
Unknown
Orbital elements
Apogee altitude
741.644 km
Perigee altitude
709.663 km
Semi-major axis
7,103.79 km
Eccentricity
0.00225
Inclination
74.0482°
RAAN
241.7522°
Arg. of periapsis
359.5012°
True anomaly
177.55662°
Mean anomaly
177.5456°
Eccentric anomaly
177.55111°
Mean motion
3.625 °/min
Orbital period
99.31 mins
BSTAR
0.00073627

Documentation

Showing up to 5 results
|